Weather History for Paynesville, MN

Change the Weather History Date:

Tuesday, May 7, 2013

  Actual Average (KLJF) Record (KLJF)
Temperature  
Mean Temperature 58 °F -  
Max Temperature 77 °F 68 °F 92 °F (1990)
Min Temperature 39 °F 43 °F 26 °F (1976)
Degree Days  
Heating Degree Days 8    
Growing Degree Days 8 (Base 50)    
Moisture  
Dew Point 41 °F    
Average Humidity 56    
Maximum Humidity 97    
Minimum Humidity 23    
Precipitation  
Precipitation 0.00 in - - ()
Sea Level Pressure  
Sea Level Pressure 30.02 in    
Wind  
Wind Speed 2 mph (SSE)    
Max Wind Speed 13 mph    
Max Gust Speed 25 mph    
Visibility 9 miles    
Events      
Averages and records for this station are not official NWS values.
T = Trace of Precipitation, MM = Missing Value Source: NWS Daily Summary

Daily Weather History Graph

Daily Weather History Graph

Search for Another Location

Airport:

Trip Planner

Search our weather history database for the weather conditions in past years. The results will help you decide how hot, cold, wet, or windy it might be!

Date:

Astronomy

May. 07, 2013 Rise Set
Actual Time 5:58 AM CDT 8:33 PM CDT
Civil Twilight 5:24 AM CDT 9:06 PM CDT
Nautical Twilight 4:43 AM CDT 9:49 PM CDT
Astronomical Twilight 3:54 AM CDT 10:37 PM CDT
Moon 4:39 AM CDT (5/7) 6:29 PM CDT (5/7)
Length of Visible Light 15h 41m
Length of Day
14h 34m
Waning Crescent, 5% of the Moon is Illuminated
May 7
Waning Crescent
May 9
New
May 17
First Quarter
May 24
Full
May 31
Last Quarter

Hourly Weather History & Observations

Time (CDT) Temp. Windchill Dew Point Humidity Pressure Visibility Wind Dir Wind Speed Gust Speed Precip Events Conditions
12:13 AM 48.9 °F - 44.6 °F 85% 30.06 in 10.0 mi Calm Calm - N/A   Clear
12:33 AM 50.9 °F - 45.0 °F 80% 30.06 in 10.0 mi Calm Calm - N/A   Clear
12:53 AM 49.3 °F - 44.6 °F 84% 30.06 in 10.0 mi Calm Calm - N/A   Clear
1:13 AM 46.9 °F - 43.7 °F 88% 30.06 in 7.0 mi Calm Calm - N/A   Clear
1:33 AM 46.4 °F - 43.2 °F 88% 30.06 in 7.0 mi Calm Calm - N/A   Clear
1:53 AM 46.6 °F - 43.9 °F 90% 30.06 in 7.0 mi Calm Calm - N/A   Clear
2:13 AM 45.0 °F - 42.3 °F 90% 30.06 in 7.0 mi Calm Calm - N/A   Clear
2:33 AM 43.9 °F - 41.9 °F 93% 30.06 in 5.0 mi Calm Calm - N/A   Clear
2:53 AM 43.9 °F - 42.3 °F 94% 30.06 in 7.0 mi Calm Calm - N/A   Clear
3:13 AM 44.8 °F - 42.6 °F 92% 30.06 in 7.0 mi Calm Calm - N/A   Clear
3:33 AM 45.1 °F - 42.8 °F 91% 30.05 in 7.0 mi Calm Calm - N/A   Clear
3:53 AM 43.9 °F - 41.9 °F 93% 30.05 in 7.0 mi Calm Calm - N/A   Clear
4:13 AM 44.1 °F - 42.1 °F 93% 30.05 in 7.0 mi Calm Calm - N/A   Clear
4:33 AM 43.7 °F - 41.9 °F 93% 30.05 in 7.0 mi Calm Calm - N/A   Clear
4:53 AM 42.6 °F - 41.0 °F 94% 30.05 in 7.0 mi Calm Calm - N/A   Clear
5:12 AM 41.9 °F - 39.9 °F 93% 30.06 in 7.0 mi Calm Calm - N/A   Clear
5:33 AM 41.4 °F - 39.4 °F 93% 30.06 in 7.0 mi Calm Calm - N/A   Clear
5:53 AM 40.1 °F - 38.5 °F 94% 30.06 in 5.0 mi Calm Calm - N/A   Clear
6:13 AM 39.7 °F - 38.5 °F 95% 30.06 in 2.5 mi Calm Calm - N/A   Clear
6:33 AM 40.1 °F - 39.2 °F 97% 30.06 in 2.5 mi Calm Calm - N/A   Clear
6:53 AM 41.2 °F - 40.3 °F 97% 30.06 in 4.0 mi Calm Calm - N/A   Clear
7:13 AM 43.7 °F 42.1 °F 42.8 °F 97% 30.07 in 4.0 mi West 3.5 mph - N/A   Clear
7:33 AM 46.9 °F - 45.5 °F 95% 30.07 in 4.0 mi Calm Calm - N/A   Clear
7:53 AM 50.2 °F - 47.3 °F 90% 30.08 in 5.0 mi Calm Calm - N/A   Clear
8:13 AM 54.0 °F - 49.3 °F 84% 30.07 in 7.0 mi Calm Calm - N/A   Clear
8:32 AM 59.0 °F - 49.1 °F 70% 30.08 in 10.0 mi Calm Calm - N/A   Clear
8:53 AM 61.2 °F - 47.5 °F 61% 30.07 in 10.0 mi SW 4.6 mph - N/A   Clear
9:13 AM 62.8 °F - 47.7 °F 58% 30.07 in 10.0 mi WSW 4.6 mph - N/A   Clear
9:33 AM 63.9 °F - 47.1 °F 54% 30.07 in 10.0 mi Calm Calm - N/A   Clear
9:53 AM 64.6 °F - 47.5 °F 54% 30.07 in 10.0 mi Calm Calm - N/A   Clear
10:13 AM 65.1 °F - 46.8 °F 51% 30.07 in 10.0 mi ESE 6.9 mph - N/A   Clear
10:33 AM 65.8 °F - 46.8 °F 50% 30.06 in 10.0 mi ESE 8.1 mph - N/A   Clear
10:53 AM 66.9 °F - 47.1 °F 49% 30.06 in 10.0 mi SE 4.6 mph - N/A   Clear
11:13 AM 68.5 °F - 46.9 °F 46% 30.06 in 10.0 mi South 4.6 mph - N/A   Scattered Clouds
11:33 AM 69.1 °F - 46.2 °F 44% 30.06 in 10.0 mi SE 8.1 mph - N/A   Scattered Clouds
11:53 AM 70.0 °F - 45.3 °F 41% 30.05 in 10.0 mi SSW 5.8 mph - N/A   Scattered Clouds
12:13 PM 70.7 °F - 45.7 °F 41% 30.05 in 10.0 mi South 9.2 mph 16.1 mph N/A   Scattered Clouds
12:33 PM 70.3 °F - 46.0 °F 42% 30.04 in 10.0 mi SSE 5.8 mph - N/A   Scattered Clouds
12:53 PM 70.9 °F - 44.8 °F 39% 30.04 in 10.0 mi South 9.2 mph 17.3 mph N/A   Scattered Clouds
1:13 PM 70.3 °F - 44.4 °F 39% 30.03 in 10.0 mi SSW 9.2 mph 17.3 mph N/A   Scattered Clouds
1:33 PM 72.0 °F - 43.2 °F 35% 30.02 in 10.0 mi South 12.7 mph 20.7 mph N/A   Mostly Cloudy
1:53 PM 72.9 °F - 42.8 °F 34% 30.02 in 10.0 mi South 9.2 mph 25.3 mph N/A   Mostly Cloudy
2:13 PM 73.6 °F - 41.4 °F 31% 30.01 in 10.0 mi South 10.4 mph 18.4 mph N/A   Scattered Clouds
2:33 PM 72.0 °F - 41.9 °F 34% 30.00 in 10.0 mi SE 8.1 mph - N/A   Scattered Clouds
2:53 PM 73.4 °F - 41.5 °F 32% 30.00 in 10.0 mi SE 9.2 mph - N/A   Mostly Cloudy
3:13 PM 72.9 °F - 40.6 °F 31% 29.99 in 10.0 mi SE 10.4 mph - N/A   Mostly Cloudy
3:33 PM 74.7 °F - 39.6 °F 28% 29.98 in 10.0 mi ESE 9.2 mph - N/A   Mostly Cloudy
3:53 PM 75.6 °F - 37.4 °F 25% 29.98 in 10.0 mi South 8.1 mph - N/A   Mostly Cloudy
4:13 PM 76.6 °F - 36.9 °F 24% 29.98 in 10.0 mi SSW 9.2 mph - N/A   Scattered Clouds
4:33 PM 75.6 °F - 36.5 °F 24% 29.97 in 10.0 mi SSE 6.9 mph - N/A   Scattered Clouds
4:53 PM 76.1 °F - 35.6 °F 23% 29.97 in 10.0 mi SW 10.4 mph - N/A   Scattered Clouds
5:13 PM 75.9 °F - 35.6 °F 23% 29.97 in 10.0 mi SSW 11.5 mph - N/A   Clear
5:33 PM 75.2 °F - 35.8 °F 24% 29.96 in 10.0 mi Calm Calm - N/A   Clear
5:53 PM 75.0 °F - 35.8 °F 24% 29.96 in 10.0 mi Calm Calm - N/A   Clear
6:13 PM 75.6 °F - 35.4 °F 23% 29.96 in 10.0 mi SW 6.9 mph - N/A   Clear
6:32 PM 74.8 °F - 35.2 °F 24% 29.96 in 10.0 mi SSW 5.8 mph - N/A   Clear
6:53 PM 73.8 °F - 35.1 °F 24% 29.95 in 10.0 mi South 4.6 mph - N/A   Clear
7:13 PM 73.6 °F - 35.6 °F 25% 29.95 in 10.0 mi SSW 4.6 mph - N/A   Clear
7:32 PM 73.0 °F - 36.0 °F 26% 29.95 in 10.0 mi Calm Calm - N/A   Clear
7:53 PM 72.0 °F - 36.5 °F 27% 29.95 in 10.0 mi Calm Calm - N/A   Clear
8:13 PM 68.4 °F - 38.1 °F 33% 29.95 in 10.0 mi SE 4.6 mph - N/A   Clear
8:33 PM 68.5 °F - 37.0 °F 31% 29.95 in 10.0 mi SE 3.5 mph - N/A   Clear
8:53 PM 68.2 °F - 36.9 °F 32% 29.95 in 10.0 mi SE 4.6 mph - N/A   Clear
9:13 PM 67.1 °F - 37.0 °F 33% 29.96 in 10.0 mi SE 4.6 mph - N/A   Clear
9:33 PM 65.7 °F - 37.9 °F 36% 29.96 in 10.0 mi SE 4.6 mph - N/A   Clear
9:53 PM 64.2 °F - 38.7 °F 39% 29.96 in 10.0 mi SE 4.6 mph - N/A   Clear
10:13 PM 64.0 °F - 38.1 °F 38% 29.97 in 10.0 mi SSE 3.5 mph - N/A   Clear
10:32 PM 61.9 °F - 38.7 °F 42% 29.97 in 10.0 mi Calm Calm - N/A   Clear
10:53 PM 58.3 °F - 38.8 °F 48% 29.97 in 10.0 mi SSE 4.6 mph - N/A   Clear
11:13 PM 63.1 °F - 38.1 °F 40% 29.97 in 10.0 mi SSE 3.5 mph - N/A   Clear
11:33 PM 61.9 °F - 38.3 °F 42% 29.96 in 10.0 mi SSE 4.6 mph - N/A   Clear
11:53 PM 61.2 °F - 39.2 °F 44% 29.97 in 10.0 mi SSE 4.6 mph - N/A   Clear